Location: Bednik
(45.3500°N, 16.3833°E)
Time: 04:32:24
(UTC+00:00)

FALCON 9 DEB - Pass Details

Date: 08 August 2020
Orbit: 428 x 441 km, 53.0° (Epoch: 19 September)

Event Time Altitude Azimuth Distance (km) Brightness Sun altitude
Rises 19:32:55 0° 216° (SW) 2,414 6.9 -13.0°
Reaches altitude 10° 19:35:07 10° 208° (SSW) 1,550 5.8 -13.3°
Maximum altitude 19:38:21 37° 139° (SE) 697 3.6 -13.7°
Drops below altitude 10° 19:41:38 10° 70° (ENE) 1,560 5.6 -14.1°
Enters shadow 19:42:20 - 67° (ENE) 1,835 6.0 -14.2°
